CZ-3C DEB

Satellite information

Favourite Embed

Satellite Type and Status

DEBRISIN ORBIT

Key statistics

Satellite CZ-3C DEB at a glance.

Uptime

5523

Days in orbit

Revolutions

≈ 2.3

Per day

Orbit

GTO

Geostationary Transfer Orbit

Inclination

20.1

Latest

Satellite identification and parameters

Extended collection of information and parameters for CZ-3C DEB.

Object identification

Identified? True

Debris? True

Object name: CZ-3C DEB

International designator: 2010-057C

Object number (NORAD): 39338

Object ID (CCSDS): 39338

Country: PEOPLES REPUBLIC OF CHINA (PRC)

Current information (Y/N): Y

RCS size: MEDIUM

Orbital parameters

Period: 637.508 minutes

Inclination: 20.0625 deg

SMA: 24536.774 km

Apoapsis: 35815.904 km

Periapsis: 501.375 km

RAAN: 74.6272 deg

Eccentricy: 0.71962452

Argument of periapsis: 217.7011 deg

Mean anomaly: 58.8383 deg

Mean motion: 2.25879367 rev/day

Mean motion (dot): 0.00000478 rev/day2

B* drag term: 0.0041234022 1/REarth

Two-line elements (TLE)

Creation date: Dec. 12, 2025, 10:14 a.m.

Reference frame: TEME

Reference center: EARTH

Epoch: Dec. 11, 2025, 7:53 p.m. UTC

TLE line 0: 0 CZ-3C DEB

TLE line 1: 1 39338U 10057C 25345.82893886 .00000478 00000-0 41234-2 0 9995

TLE line 2: 2 39338 20.0625 74.6272 7196245 217.7011 58.8383 2.25879367100166

Live tracking on map

Real-time ground track for satellite CZ-3C DEB.

In-orbit conjunctions

A list of the most updated potential collisions computed for object CZ-3C DEB.

Target Orbit TCA Probability of collision Miss distance Type
SL-12 DEB HEO 2024-10-18 18:17:41 TBA 2279.0 (m) DEBRIS

Associated space launch

CZ-3C DEB was lifted into orbit during the mission ‘Long March 3C | Compass-G4’, on board a Long March 3 space rocket.

The launch took place on Oct. 31, 2010, 4:26 p.m. from Launch Complex 2 (LC-2).

For more information about the launch, click the button.

Launch to space Long March 3C | Compass-G4
Long March 3C | Compass-G4

Agency: N/A

Status: Launch Successful

Launch date: Oct. 31, 2010, 4:26 p.m. UTC

Rocket: Long March 3

Launch pad: Launch Complex 2 (LC-2)

Location: Xichang Satellite Launch Center, People's Republic of China

...

Latest news about this satellite

There are no fresh news available about this satellite. Check back as we update our databases every day.


Newsletter sign-up

Weekly statistics, charts and insights to help you stay on top of the space industry.